{"data":{"norad_id":64112,"epoch":"2026-05-24T22:54:18.723168Z","epoch_age_seconds":74881,"freshness":"FRESH","line1":"1 64112U 25110S   26144.95438337  .00011043  00000+0  36696-3 0  9993","line2":"2 64112  53.1611  32.1866 0001311  99.4798 260.6352 15.31711676 57566","mean_motion":15.31711676,"eccentricity":0.0001311,"inclination_deg":53.1611,"raan_deg":32.1866,"arg_perigee_deg":99.4798,"mean_anomaly_deg":260.6352,"bstar":0.00036696,"rev_number":5756,"period_min":94.012471313172,"perigee_km":469.80730668722,"apogee_km":471.60307310941,"semimajor_km":6848.8421898983,"source":"CELESTRAK","updated_at":"2026-05-25T13:38:20.267438Z"}}